Find Starlink 3795

NORAD ID: 52264 Int'l Des: 2022-041 Owner: SPXS Country: US Constellation: starlink operational
LEOCIRCULAR

当前视图

正在加载3D地球...

About Starlink 3795

Starlink 3795 (NORAD 52264) is a starlink constellation satellite (v1.5) launched Apr 21, 2022 by SPXS of US. It operates in LEO, CIRCULAR orbit with a mass of 297.00 kg.

即将过境

Passes for default location (London). Set your location on the main map for personalized predictions.

高度历史

Loading altitude history...

两行轨道根数

1 52264U 22041D 26254.28791678 .00000664 00000-0 30806-4 0 9992
2 52264 53.1615 341.0352 0001151 85.9633 274.1501 15.34388019242585
Epoch: Sep 11, 2026 • Age: 11 hours

当前状态

高度 474.3 km
远地点 / 近地点 N/A
速度 7.63 km/s
星下点 -34.69°S, 52.29°E
发射日期 Apr 21, 2022
运行时间 4.3 years
类型 internet

技术详情

分类 Payload
质量 297.00 kg
干质量 275.00 kg
总质量 297.00 kg
长度 0.20 m
直径 2.80 m
跨度 9.00 m
形状 Box + pan
制造商 SPXS
平台类型 Starlink
阶段状态 In Orbit
所有者/国家 SPXS/US

Most Searched